weather.gov     
National Weather Service

Terminal Aerodrome Forecast
NWS Homepage
This page is being discontinued on March 12, 2014.
The same data is available at this site. Please update your bookmarks.
Thank you, and we apologize for the inconvenience.
Please send an email to SR-SRH.Webmaster@noaa.gov with any concerns.


Current Version
Previous Version:    01  02  03  04  05  06  07  08  09  10  11  12  13  14  
[Printable]
697
FTUS41 KGYX 310521
TAFRKD
TAF
KRKD 310521Z 3106/0106 33015G30KT 1 1/2SM -SN BLSN OVC010
     FM311000 34018G28KT 4SM -SN BLSN OVC020
     FM311300 33020G30KT P6SM -SHSN BKN035
     FM312100 32018G30KT P6SM SCT050
     FM010100 32010KT P6SM SKC
      AMD LTD TO CLD VIS AND WIND=




697
FTUS41 KGYX 310521
TAFRKD
TAF
KRKD 310521Z 3106/0106 33015G30KT 1 1/2SM -SN BLSN OVC010
     FM311000 34018G28KT 4SM -SN BLSN OVC020
     FM311300 33020G30KT P6SM -SHSN BKN035
     FM312100 32018G30KT P6SM SCT050
     FM010100 32010KT P6SM SKC
      AMD LTD TO CLD VIS AND WIND=


U.S. Dept. of Commerce
NOAA National Weather Service
1325 East West Highway
Silver Spring, MD 20910
E-mail: w-nws.webmaster@noaa.gov
Page last modified: May 16, 2007
NATIONAL WEATHER SERVICE: for Safety, for Work, for Fun - FOR LIFE